Regional Weather Roundup
Issued by NWS

Home | Current Version | Previous Version | Graphics & Text | Print | Product List | Glossary On
Versions: 1 2 3 4 5 6 7 8 9 10 11 12 13 14 15 16 17 18 19 20 21 22 23 24 25 26 27 28 29 30 31 32 33 34 35 36 37 38 39 40 41 42 43 44 45 46 47 48 49 50
000
ASUS43 KMPX 220310
RWRMN
WEATHER ROUNDUP FOR MINNESOTA
NATIONAL WEATHER SERVICE TWIN CITIES/CHANHASSEN MN
1000 PM CDT SUN MAY 21 2017


NOTE: "FAIR" INDICATES FEW OR NO CLOUDS BELOW 12,000 FEET WITH NO
SIGNIFICANT WEATHER AND/OR OBSTRUCTIONS TO VISIBILITY. N/A MEANS
CURRENT SKY AND/OR WEATHER CONDITIONS ARE NOT AVAILABLE.

MNZ060>063-068>070-220400-
   Twin Cities Metro

CITY           SKY/WX    TMP DP  RH WIND       PRES   REMARKS
TWIN CITIES    CLOUDY    47  40  76 W9        29.91R
ST PAUL        CLOUDY    46  43  89 W9        29.91S
CRYSTAL        CLOUDY    45  40  82 W8        29.89S
BLAINE         DRIZZLE   46  46 100 W7        29.90R
LAKEVILLE      CLOUDY    45  43  93 W6        29.92R
EDEN PRAIRIE   CLOUDY    48  40  73 W5        29.91R
SOUTH ST PAUL  CLOUDY    47  42  82 W7        29.91R
LAKE ELMO      CLOUDY    45  43  93 W9        29.90S
$$
MNZ001>005-007-008-013>017-022>024-027-028-220400-
   Northwest Minnesota

CITY           SKY/WX    TMP DP  RH WIND       PRES   REMARKS
BEMIDJI        CLOUDY    44  42  95 W7        29.82S
HALLOCK        DRIZZLE   46  45  93 N15       29.85S
ROSEAU         CLOUDY    48  43  81 NW8       29.81F
WARROAD        CLOUDY    45  41  87 NW6       29.81F FOG
THIEF RVR FALL LGT RAIN  46  43  89 NW12      29.85S
CROOKSTON      CLOUDY    46  45  93 NW9       29.87S
FOSSTON        CLOUDY    45  43  93 W10       29.85R
DETROIT LAKES  CLOUDY    45  43  93 W6        29.88S
MOORHEAD       PTCLDY    46  43  87 NW5       29.90R
PARK RAPIDS    CLOUDY    46  40  79 W8        29.84S
MAHNOMEN       CLOUDY    46  43  90 W6        29.85S
$$
MNZ006-009>011-018-025>026-220400-
   North Central Minnesota

CITY           SKY/WX    TMP DP  RH WIND       PRES   REMARKS
BAUDETTE       CLOUDY    46  44  93 W9        29.78F FOG
FLAG ISLAND    CLOUDY    48  45  87 N16       29.79R
INTL FALLS     CLOUDY    46  43  89 W6        29.76S
WASKISH        CLOUDY    46  43  87 NW12      29.80S
BIG FORK       DRIZZLE   45  43  93 SW3       29.79S
LONGVILLE      CLOUDY    45  43  93 W3        29.83S FOG
GRAND RAPIDS   LGT RAIN  45  43  93 W9        29.82S
CRANE LAKE     CLOUDY    45  45 100 CALM      29.77S
ORR            CLOUDY    45  43  93 W5        29.74S
COOK           CLOUDY    45  45 100 W6        29.78R
WALKER         CLOUDY    43  41  92 W8        29.83S
$$
MNZ012-019>021-037-220400-
   Northeast Minnesota

CITY           SKY/WX    TMP DP  RH WIND       PRES   REMARKS
DULUTH         DRIZZLE   46  45  96 W13       29.78S FOG
ELY            CLOUDY    45  45 100 W5        29.75R
HIBBING        CLOUDY    44  43  96 W6        29.78R
EVELETH        DRIZZLE   45  43  93 W7        29.78S
DULUTH HARBOR  CLOUDY    48  46  93 SW12      29.80R
TWO HARBORS    CLOUDY    48  43  81 CALM      29.75R
SILVER BAY     CLOUDY    43  43 100 CALM      29.74S
GRAND MARAIS     N/A     39  39 100 W6        29.74S
G MARAIS ARPRT CLOUDY    43  39  87 CALM      29.72S
$$
MNZ029>031-032-039>041-046>048-054>057-064-220400-
   West Central Minnesota

CITY           SKY/WX    TMP DP  RH WIND       PRES   REMARKS
FERGUS FALLS   PTCLDY    43  43 100 W5        29.90R
WHEATON        CLOUDY    48  43  81 W3        29.94S
MORRIS         CLEAR     45  43  93 W6        29.92R
ALEXANDRIA     CLOUDY    45  41  86 W7        29.91R
ELBOW LAKE     FAIR      43  41  95 CALM      29.91S
WADENA         CLOUDY    45  41  87 W5        29.87R
GLENWOOD       CLOUDY    45  41  87 W7        29.92R
APPLETON       PTCLDY    45  43  93 S3        29.93S
BENSON         CLEAR     45  41  87 W7        29.95R
ORTONVILLE     CLEAR     48  41  76 W3        29.94R
MADISON        PTCLDY    50  43  76 SW6       29.95S
WILLMAR        FAIR      45  43  93 W9        29.95R
$$
MNZ033>034-036-042>043-049>051-058-059-220400-
   Central Minnesota

CITY           SKY/WX    TMP DP  RH WIND       PRES   REMARKS
ST CLOUD       CLOUDY    45  41  86 W8        29.89S
SAUK CENTRE    FAIR      44  41  89 W9        29.90S
PAYNESVILLE    CLOUDY    44  44 100 W6        29.92R
AITKIN         CLOUDY    43  41  93 W6        29.82S
PINE RIVER     CLOUDY    45  41  87 W3        29.88S
BRAINERD       LGT RAIN  44  42  93 W7        29.86S
STAPLES        DRIZZLE   45  41  87 W8        29.87R
LONG PRAIRIE   CLOUDY    45  41  87 SW8       29.89S
LITTLE FALLS   DRIZZLE   43  41  93 SW3       29.88S
LITCHFIELD     CLOUDY    46  43  87 W5        29.92S
BUFFALO        CLOUDY    46  40  80 W3        29.91S
MAPLE LAKE     CLOUDY    46  42  84 W5        29.91S
HUTCHINSON     CLOUDY    46  42  85 W9        29.94S
$$
MNZ037-044-045-052-053-220400-
   East Central Minnesota

CITY           SKY/WX    TMP DP  RH WIND       PRES   REMARKS
PRINCETON      RAIN      45  43  93 W6        29.89R
MORA           DRIZZLE   45  43  93 W8        29.87S
CAMBRIDGE      DRIZZLE   46  43  87 W6        29.86S
RUSH CITY      DRIZZLE   44  42  93 W8        29.86S
MOOSE LAKE     CLOUDY    45  43  93 W5        29.81S
HINCKLEY       CLOUDY    45  45 100 W7        29.84S FOG
CLOQUET        CLOUDY    45  43  93 W8        29.80R
MCGREGOR       CLOUDY    45  43  93 W6        29.83S
$$
MNZ071>073-080-081-089-090-097-098-220400-
   Southwest Minnesota

CITY           SKY/WX    TMP DP  RH WIND       PRES   REMARKS
MONTEVIDEO     MOCLDY    45  39  81 CALM      29.95R
CANBY          CLOUDY    46  44  94 CALM      29.98R
MARSHALL       PTCLDY    46  42  86 CALM      29.97S
REDWOOD FALLS  CLOUDY    48  41  76 SW6       29.96R
OLIVIA         CLOUDY    43  39  87 CALM      29.94S
PIPESTONE      CLEAR     48  41  76 S3        29.97S
WINDOM         CLEAR     46  41  81 SW3       29.98S
WORTHINGTON    CLEAR     47  43  86 S3        30.00S
JACKSON        PTCLDY    45  41  87 CALM      30.00R
TRACY          CLEAR     46  43  92 SW3       29.98R
SLAYTON        CLEAR     45  41  87 CALM      29.99R
$$
MNZ065>067-074>077-082>085-091>093-220400-
   South Central Minnesota

CITY           SKY/WX    TMP DP  RH WIND       PRES   REMARKS
MANKATO        CLEAR     44  41  89 SW8       29.96R
NEW ULM        CLEAR     43  41  93 SW6       29.96S
ST JAMES       CLEAR     45  43  93 SW7       29.99R
FAIRMONT       CLEAR     47  42  83 W8        29.99R
GLENCOE        CLEAR     47  44  90 W5        29.92S
FARIBAULT      CLEAR     45  41  87 SW7       29.94S
OWATONNA       CLEAR     45  39  81 SW8       29.95R
WASECA         CLEAR     43  39  87 SW8       29.97S
ALBERT LEA     CLEAR     46  43  87 W6        29.98R
$$
MNZ078>079-086>088-094>096-220400-
   Southeast Minnesota

CITY           SKY/WX    TMP DP  RH WIND       PRES   REMARKS
ROCHESTER      PTCLDY    43  40  89 W16       29.95R
RED WING       CLOUDY    46  39  76 W9        29.90S
STANTON        CLOUDY    46  41  81 W8        29.92R
DODGE CENTER   PTCLDY    43  39  87 W9        29.95R
WINONA         CLOUDY    48  41  76 W13G18    29.93R
AUSTIN         CLEAR     45  39  81 W6        29.97R
PRESTON        CLOUDY    45  38  77 W14       29.96R
$$
ABBREVIATIONS USED IN REMARKS
   TC - TEMPERATURES IN CELSIUS
  WCI - WIND CHILL INDEX
   HX - HEAT INDEX
  VSB - VISIBILITY
$$




USA.gov is the U.S. government's official web portal to all federal, state and local government web resources and services.